Regional Weather Roundup
Issued by NWS Pendleton, OR

Home | Current Version | Previous Version | Text Only | Print | Product List | Glossary On
Versions: 1 2 3 4 5 6 7 8 9 10 11 12 13 14 15 16 17 18 19 20 21 22 23 24 25 26 27 28 29 30 31 32 33 34 35 36 37 38 39 40 41 42 43 44 45 46 47 48 49 50
000
ASUS46 KPDT 131925
RWRPDT
PENDLETON REGIONAL WEATHER ROUNDUP
NATIONAL WEATHER SERVICE PENDLETON OREGON
1100 AM PST WED DEC 13 2017

NOTE: FAIR INDICATES FEW OR NO CLOUDS BELOW 12,000 FEET WITH NO
SIGNIFICANT WEATHER AND/OR OBSTRUCTIONS TO VISIBILITY.

# INDICATES UNOFFICIAL STATION AND DATA

WAZ520-132010-
EAST SLOPES OF WASHINGTON CASCADES

CITY            SKY/WX      TMP DP  RH  WIND    PRES   REMARKS
#BULLFROG       N/A         27  23  85  CALM    N/A
#CLE ELUM HS    N/A         28  22  78  CALM    30.42F
#CLE ELUM LAKE  N/A         25  23  92  CALM    30.37F
#EASTON DOT     N/A         24  22  92  N2      N/A
#ELK HTS DOT    N/A         26  26  100 CALM    N/A
#GLENWOOD       N/A         29  25  85  CALM    30.62R
#NELSON 3SW     N/A         22  21  96  CALM    30.84F
#NILE           N/A         29  24  81  S1      29.84F
#TEANAWAY 4NE   N/A         26  24  92  CALM    N/A
#TROUT LAKE 1NE N/A         27  24  88  CALM    30.62R
#TROUT LAKE 1E  N/A         27  24  88  CALM    30.54R
$$

WAZ521-132010-
SIMCOE HIGHLANDS

CITY            SKY/WX      TMP DP  RH  WIND    PRES   REMARKS
#BICKLETON HS   N/A         N/A N/A N/A CALM    30.54R
#CENTERVILLE 1SWN/A         27  23  85  CALM    30.60S
#GOLDENDALE 4W  N/A         29  15  55  E1      30.55S
#GOODNOE HILLS  N/A         30  25  81  SE8     30.46S
#LYLE 6NE       N/A         28  25  88  E2      30.64R
#PITT 4SE       N/A         24  23  96  CALM    30.68R
$$

WAZ026-132010-
KITTITAS VALLEY

CITY            SKY/WX      TMP DP  RH  WIND    PRES   REMARKS
ELLENSBURG AP   CLOUDY      30  24  78  W6      30.53S HAZE
#ELLENSBURG CWU N/A         28  24  85  N1      30.56F
#ELLENSBURG 3NE N/A         27  25  92  CALM    28.58S
#ELLENSBURG 1E  N/A         28  24  85  CALM    30.68S
#KITTITAS 3S    N/A         29  25  85  CALM    30.60F
#MANASTASH RDG  N/A         25  25  100 CALM    N/A
#RYEGRASS DOT   N/A         25  23  92  W2      N/A
$$

WAZ027-132010-
YAKIMA VALLEY

CITY            SKY/WX      TMP DP  RH  WIND    PRES   REMARKS
SUNNYSIDE AP    CLOUDY      31  26  81  W6      30.60S
YAKIMA AIRPORT  CLOUDY      33  25  72  W5      30.59
YAKIMA-VAGABOND CLOUDY      30  24  78  W5      30.54S
#DONALD 2NE     N/A         32  13  45  SW3     29.42R
#GRANDVIEW      N/A         31  26  81  CALM    30.54S
#MABTON         N/A         32  30  92  CALM    30.60S
#MOXEE 2E       N/A         29  N/A N/A W1      30.62R
#NACHES 2SW     N/A         29  26  88  E1      30.53S
#OUTLOOK DOT    N/A         31  29  92  CALM    30.57R
#PARKER DOT     N/A         31  25  78  NE3     30.59R
#TERRACE HTS    N/A         31  26  81  CALM    30.61S
#TOPPENISH      N/A         32  27  82  CALM    30.56R
#I82 S UMTANUM RN/A         28  24  85  SW3     N/A
#UNION GAP DOT  N/A         32  25  75  NW1     30.63R
#W YAKIMA       N/A         30  25  81  NW3     30.64F
#WHITE SWAN 5E  N/A         32  27  82  CALM    30.65F
#ZILLAH DOT     N/A         32  26  78  W3      N/A
$$

WAZ028-132010-
LOWER COLUMBIA BASIN...WASHINGTON

CITY            SKY/WX      TMP DP  RH  WIND    PRES   REMARKS
HANFORD         CLOUDY      32  26  78  N2      30.60R
PASCO           CLOUDY      34  26  72  N3      30.63R
PROSSER AWOS    N/A         32  30  92  SW5     30.64S
RICHLAND AWOS   CLOUDY      34  29  82  S5      30.62S
#BENTON CITY    N/A         32  28  85  CALM    30.55S
#CONNELL 5N     N/A         30  27  88  CALM    30.63S
#CONNELL 5NW    N/A         30  27  88  W1      30.58S
#ELTOPIA 6NW    N/A         31  28  88  CALM    29.53F
#KAHLOTUS       N/A         29  26  88  NW7     30.63R
#KENNEWICK 3S   N/A         31  29  92  CALM    30.65R
#PATERSON       N/A         33  28  82  CALM    30.63S
#PROSSER DOT    N/A         32  30  92  CALM    30.61S
#SAGEMOOR 2W    N/A         31  26  81  CALM    30.51R
#TOUCHET 2S     N/A         31  29  92  NW1     30.63R
#WEST PASCO     N/A         32  27  82  CALM    30.65
$$

WAZ029-132010-
FOOTHILLS OF THE BLUES...WASHINGTON

CITY            SKY/WX      TMP DP  RH  WIND    PRES   REMARKS
WALLA WALLA AP  CLOUDY      30  25  81  W5      30.57R
#CLYDE 6NW      N/A         29  25  85  W3      30.61R
#DELANEY DOT    N/A         31  25  78  SW3     30.58R
#LOWDEN 2SE     N/A         31  29  92  W1      30.59R
#PLEASANT VIEW 1N/A         27  25  92  CALM    30.67R
#PRESCOTT       N/A         32  28  85  CALM    30.63R
#WHITMAN COLLEGEN/A         30  27  88  NW3     30.62R
#WAITSBURG 5S   N/A         27  25  92  W2      30.74R
#WAITSBURG 6SSE N/A         28  23  81  SW3     30.60R
#WALLA WALLA 5E N/A         30  28  92  W2      N/A
#WHITMAN MISSIONN/A         32  30  92  SW1     30.66R
$$

WAZ030-132010-
BLUE MOUNTAINS...WASHINGTON

CITY            SKY/WX      TMP DP  RH  WIND    PRES   REMARKS
#DIXIE 5SE      N/A         22  20  92  CALM    30.37R
$$

ORZ009-041-WAZ024-132010-
COLUMBIA RIVER GORGE

CITY            SKY/WX      TMP DP  RH  WIND    PRES   REMARKS
HOOD RIVER AP   CLOUDY      32  27  82  E5      30.60S
THE DALLES AP   CLOUDY      35  26  69  E5      30.64R
#ARLINGTON AIRPON/A         30  27  88  SE5     30.66S
#ARLINGTON HS   N/A         33  26  75  N1      30.55S
#CELILO DOT     N/A         35  24  64  CALM    N/A
#LYLE           N/A         34  28  78  E5      30.65R
#MARYHILL       N/A         31  26  81  N3      N/A
#MURDOCK        N/A         34  28  78  E1      30.60S
#RUFUS DOT      N/A         34  N/A N/A SE6     N/A
#SMITHVILLE     N/A         34  28  78  E3      30.59R

$$

ORZ510-132010-
NORTH CENTRAL OREGON

CITY            SKY/WX      TMP DP  RH  WIND    PRES   REMARKS
#ANTELOPE       N/A         23  20  88  N3      30.52S
#CHENOWITH 1W   N/A         26  25  96  E7      N/A
#COW CYN RST AREN/A         21  N/A N/A N6      N/A
#DUFUR          N/A         28  25  88  E2      30.61R
#DUFUR 9E       N/A         24  23  96  CALM    30.71R
#GRASS VALLEY 1SN/A         25  24  96  CALM    30.47R
#KENT DOT       N/A         24  19  81  CALM    N/A
#MAUPIN SCHOOL  N/A         31  23  72  CALM    30.62R
#MORO SCHOOL    N/A         26  26  100 CALM    30.51R
#SHANIKO 5WSW   N/A         20  N/A N/A N8      N/A
#SHANIKO 4NW    N/A         19  18  96  NE12    30.40R WCI  6
#TYGH VALLEY 2NEN/A         30  25  81  N2      30.63S
#WAPANITIA AIRPON/A         26  23  88  CALM    30.66R
#WASCO DOT      N/A         30  26  85  E7      N/A
#WASCO 5NE      N/A         28  17  63  E5      30.64S
$$

ORZ511-132010-
CENTRAL OREGON

CITY            SKY/WX      TMP DP  RH  WIND    PRES   REMARKS
BEND AIRPORT    PTCLDY      27  19  71  N6      30.41R
PRINEVILLE AP   PTCLDY      27  21  78  NW6     30.40F
REDMOND AIRPORT CLOUDY      23  21  92  NW7     30.42R FOG
#ASHWOOD SCHOOL N/A         23  21  92  CALM    30.40R
#BEND 1SW       N/A         32  22  66  NE2     N/A
#BEND-AWBREY    N/A         25  22  88  N3      30.51R
#BEND-KIM LN    N/A         22  20  92  N1      30.53R
#CULVER         N/A         21  19  92  CALM    30.49R
#CULVER 8W      N/A         24  18  77  CALM    30.54R
#LAKE BILLY CHINN/A         23  N/A N/A CALM    30.56R
#MADRAS 4S      N/A         22  10  59  N9      N/A
#POWELL BUTTE   N/A         23  17  77  N2      30.29S
#PRINEVILLE     N/A         26  21  81  CALM    30.65F
#PRINEVILLE 3N  N/A         24  21  88  W2      30.55F
#WARM SPRINGS   N/A         28  23  81  CALM    30.46R

$$


ORZ509-132010-
EAST SLOPES OF OREGON CASCADES

CITY            SKY/WX      TMP DP  RH  WIND    PRES   REMARKS
SISTERS AWOS    N/A         21  19  92  CALM    N/A
#BLUE BOX PASS  N/A         23  N/A N/A S1      N/A
#CAMP SHERMAN   N/A         30  22  72  CALM    30.62S
#LA PINE 4NW    N/A         33  20  58  CALM    30.56F
#LAVA BUTTE DOT N/A         38  19  46  CALM    N/A
#SISTERS ODOT   N/A         20  19  96  CALM    N/A
#SISTERS 3N     N/A         24  17  74  S2      30.41R
#SUNRIVER       N/A         36  22  56  S1      30.34F
#TUMALO 3W      N/A         21  19  92  N5      30.42R
#WANOGA BUTTE D N/A         51  11  20  CALM    N/A

$$

ORZ044-132010-
LOWER COLUMBIA BASIN...OREGON

CITY            SKY/WX      TMP DP  RH  WIND    PRES   REMARKS
HERMISTON       CLOUDY      32  29  89  S5      30.61R FOG
#BOARDMAN SCHOOLN/A         34  30  85  SE1     30.61F
#BOARDMAN 8SW   N/A         32  29  89  E1      30.64F
#ECHO 8SW       N/A         31  30  96  CALM    30.61S
#I-84 EX 198 DOTN/A         29  27  92  E2      N/A
#IONE SCHOOL    N/A         29  15  55  CALM    30.67R
#UMATILLA       N/A         34  28  78  CALM    30.58R
$$

ORZ507-132010-
NORTHERN FOOTHILLS OF THE BLUES

CITY            SKY/WX      TMP DP  RH  WIND    PRES   REMARKS
PENDLETON AIRPT CLOUDY      28  25  88  W6      30.55R
#ADAMS 3WNW     N/A         27  24  88  NW1     30.65R
#ATHENA         N/A         26  24  92  CALM    30.68R
#CAYUSE         N/A         28  26  92  SW1     30.65R
#HELIX SCHOOL   N/A         26  25  96  CALM    30.64R
#HELIX 3N       N/A         26  25  96  SW1     30.52R
#HOLDMAN 5SE    N/A         28  26  92  N1      30.53R
#HOLDMAN 6E     N/A         26  25  96  CALM    30.45R
#M-F GROVE ELEM N/A         29  25  85  CALM    30.55R
#M-FREEWATER 5SEN/A         28  25  88  CALM    30.54R
#PENDLETON DNTN N/A         32  26  78  CALM    30.54R
#PDT AQUATIC CTRN/A         30  26  85  CALM    30.55S
#PDT SUNRIDGE   N/A         30  26  85  N1      30.59R
#PENDLETON 6SE  N/A         28  26  92  CALM    30.61R
#PENDLETON 7NW  N/A         29  24  81  CALM    30.58R
#PILOT ROCK 1S  N/A         27  21  78  CALM    30.53R
#PILOT ROCK     N/A         29  25  85  CALM    30.55R
#TUTUILLA       N/A         27  24  88  CALM    30.63R
#UMAPINE 2E     N/A         31  29  92  CALM    30.58R
#WESTON SCHOOL  N/A         26  23  88  CALM    30.45R

$$

ORZ508-132010-
SOUTHERN FOOTHILLS OF THE BLUES

CITY            SKY/WX      TMP DP  RH  WIND    PRES   REMARKS
LEXINGTON       CLOUDY      28  27  96  E3      30.58F FOG
#AJAX           N/A         24  17  74  N1      30.62R
#CONDON 5W      N/A         21  18  88  CALM    30.40R
#FOSSIL SCHOOL  N/A         24  23  96  CALM    30.37R
#HEPPNER EOC    N/A         26  24  92  E1      30.58S
#HEPPNER 4NE    N/A         23  22  96  CALM    30.64F
#LEXINGTON 2SE  N/A         29  25  85  CALM    30.52S
#MIKKALO        N/A         27  23  85  E5      30.63F
#OLEX 4N        N/A         29  26  88  E1      30.55R
#RUGGS 5NE      N/A         24  24  100 CALM    30.65R
#RUGGS 2SW      N/A         22  20  92  CALM    30.68S

$$

ORZ502-503-132010-
BLUE MOUNTAINS

CITY            SKY/WX      TMP DP  RH  WIND    PRES   REMARKS
MEACHAM         MOCLDY      27  22  81  VRB6    30.40R
#BATTLE MTN DOT N/A         20  19  96  NW2     N/A
#GRANITE        N/A         37  21  52  E2      30.47F
#LADD CYN SMT   N/A         27  22  81  SE3     N/A
#LADD CREEK ODOTN/A         30  -18 11  CALM    N/A
#LONG CREEK HS  N/A         35  28  75  CALM    30.38R
#N POWDER DOT   N/A         29  21  72  CALM    N/A
#PIKES PEAK     N/A         20  17  88  W2      27.99S
#SUMMERVILLE 5NWN/A         32  26  78  CALM    30.46S
#TOLLGATE       N/A         33  28  82  CALM    30.34R
#TROY SCHOOL    N/A         35  30  82  CALM    30.40F
#UKIAH          N/A         31  24  75  N7      30.49R
#WESTON 4E      N/A         23  22  96  CALM    30.61R
$$

ORZ505-132010-
JOHN DAY BASIN

CITY            SKY/WX      TMP DP  RH  WIND    PRES   REMARKS
JOHN DAY        SUNNY       36  23  59  W5      30.36S
#ANTELOPE 9ESE  N/A         29  24  81  NE1     N/A
#DAYVILLE SCHOOLN/A         31  20  63  N2      30.35S
#MITCHELL 8NW   N/A         23  21  92  CALM    30.67R
#MONUMENT HS    N/A         34  22  61  CALM    30.39R
#MT. VERNON 5SE N/A         34  24  66  N1      30.29S
#SPRAY SCHOOL   N/A         33  N/A N/A S1      N/A
$$

ORZ506-132010-
OCHOCO AND JOHN DAY HIGHLANDS

CITY            SKY/WX      TMP DP  RH  WIND    PRES   REMARKS
#HORSE RIDGE DO N/A         35  14  41  CALM    N/A
#IZEE 6NW       N/A         35  22  59  SE1     N/A
#PAULINA ODOT   N/A         32  19  58  S1      N/A
#PINE MTN OBS   N/A         48  32  54  CALM    N/A
#SENECA         N/A         29  N/A N/A N2      N/A
#SENECA 9NW     N/A         29  21  72  CALM    30.55F
$$

ORZ049-132010-
GRANDE RONDE VALLEY

CITY            SKY/WX      TMP DP  RH  WIND    PRES   REMARKS
LA GRANDE       MOSUNNY     30  23  75  CALM    30.45F
#COVE SCHOOL    N/A         29  24  81  CALM    30.41S
#COVE 6NW       N/A         30  25  81  CALM    30.58F
#ELGIN 3N       N/A         33  22  63  CALM    30.37S
#ELGIN 1E       N/A         31  24  75  CALM    N/A
#IMBLER SCHOOL  N/A         30  23  75  CALM    30.37S
#ISLAND CITY 4N N/A         38  34  85  CALM    30.41F
#LADD CYN DOT   N/A         31  25  78  NE2     N/A
#UNION 1S       N/A         31  25  78  CALM    30.59F
$$

ORZ050-132010-
WALLOWA COUNTY

CITY            SKY/WX      TMP DP  RH  WIND    PRES   REMARKS
JOSEPH AIRPORT  CLOUDY      28  28  100 CALM    30.37S FOG
#ENTERPRISE HS  N/A         27  25  92  CALM    30.46F
#IMNAHA SCHOOL  N/A         33  30  89  NW7     30.43S
#JOSEPH         N/A         28  25  88  CALM    30.81S
#JOSEPH 3N      N/A         26  22  85  CALM    30.35S
#JOSEPH 3W      N/A         30  29  96  CALM    30.82F
#LOSTINE        N/A         28  26  92  CALM    30.39F
#LOSTINE 3SE    N/A         28  26  92  CALM    30.42S
#MT HOWARD 8000 N/A         29  28  96  NW6     30.29S
#PROMISE 1S     N/A         29  26  88  CALM    30.63S
#WALLOWA SCHOOL N/A         29  26  88  CALM    30.35S



$$



USA.gov is the U.S. government's official web portal to all federal, state and local government web resources and services.